Date String (YYYY-MM-DD hh:mm:ss) UTC,Instrument flags,Ambient pressure (hPa),Sample flow (lpm),Bypass flow (lpm),Sample temperature (°C),Ambient temperature (°C),ASC tube jacket temperature (°C),LED temperature (°C),Box temperature (°C),Sample RH (%),Span deviation,Mass concentration (μg/m³),Mass concentration (μg/m³),Mass concentration (μg/m³)
DateTimeUTC,F1_M11,P_M11,Q1_M11,Q2_M11,T1_M11,T2_M11,T3_M11,T4_M11,T5_M11,U1_M11,ZSPAN_M11,X0_M11,X2_M11,X1_M11
2022-11-06 17:00:00,,0823.4,5.02,0.00,22.7,21.2,00.0,31.6,24.7,15.0,0000.0,0009.92,0001.88,0000.80
2022-11-06 17:01:00,,0823.5,4.99,0.00,22.7,21.2,00.0,31.6,24.6,15.0,0000.0,0010.42,0001.99,0000.79
2022-11-06 17:02:00,,0823.5,5.00,0.00,22.7,21.2,00.0,31.5,24.6,14.7,0000.0,0010.53,0002.01,0000.79
2022-11-06 17:03:00,,0823.4,5.01,0.00,22.7,21.1,00.0,31.5,24.6,14.7,0000.0,0010.77,0002.10,0000.80
2022-11-06 17:04:00,,0823.4,4.99,0.00,22.7,21.0,00.0,31.5,24.5,14.9,0000.0,0011.12,0002.18,0000.80
2022-11-06 17:05:00,,0823.5,5.00,0.00,22.6,21.0,00.0,31.5,24.5,15.0,0000.0,0010.45,0002.25,0000.82
2022-11-06 17:06:00,,0823.6,5.01,0.00,22.6,21.0,00.0,31.5,24.5,15.1,0000.0,0010.05,0002.31,0000.84
2022-11-06 17:07:00,,0823.7,4.99,0.00,22.6,21.0,00.0,31.5,24.5,15.3,0000.0,0009.73,0002.34,0000.85
2022-11-06 17:08:00,,0823.7,5.02,0.00,22.6,21.0,00.0,31.5,24.5,15.3,0000.0,0009.79,0002.31,0000.85
2022-11-06 17:09:00,,0823.7,4.99,0.00,22.6,21.0,00.0,31.4,24.5,15.2,0000.0,0010.20,0002.42,0000.86
2022-11-06 17:10:00,,0823.7,5.00,0.00,22.6,21.0,00.0,31.4,24.5,15.3,0000.0,0010.38,0002.46,0000.87
2022-11-06 17:11:00,,0823.7,5.01,0.00,22.6,21.0,00.0,31.4,24.5,14.9,0000.0,0010.21,0002.40,0000.88
2022-11-06 17:12:00,,0823.7,4.98,0.00,22.6,21.0,00.0,31.4,24.5,15.0,0000.0,0009.87,0002.34,0000.89
2022-11-06 17:13:00,,0823.7,5.01,0.00,22.6,21.0,00.0,31.4,24.5,15.2,0000.0,0010.04,0002.37,0000.90
2022-11-06 17:14:00,,0823.6,4.99,0.00,22.6,21.0,00.0,31.4,24.5,15.6,0000.0,0009.92,0002.27,0000.89
2022-11-06 17:15:00,,0823.7,4.99,0.00,22.6,21.0,00.0,31.4,24.5,15.1,0000.0,0009.58,0002.21,0000.89
2022-11-06 17:16:00,,0823.7,5.01,0.00,22.6,21.0,00.0,31.4,24.5,15.2,0000.0,0009.40,0002.17,0000.88
2022-11-06 17:17:00,,0823.8,5.01,0.00,22.6,21.0,00.0,31.4,24.5,15.2,0000.0,0008.86,0002.19,0000.88
2022-11-06 17:18:00,,0823.7,4.99,0.00,22.6,21.0,00.0,31.4,24.5,15.2,0000.0,0008.66,0002.23,0000.89
2022-11-06 17:19:00,,0823.8,5.01,0.00,22.6,21.0,00.0,31.4,24.5,15.0,0000.0,0008.80,0002.26,0000.91
2022-11-06 17:20:00,,0823.8,5.00,0.00,22.5,21.0,00.0,31.4,24.5,14.9,0000.0,0009.11,0002.26,0000.92
2022-11-06 17:21:00,,0823.7,4.98,0.00,22.5,21.0,00.0,31.4,24.4,14.8,0000.0,0009.36,0002.28,0000.92
2022-11-06 17:22:00,,0823.7,5.02,0.00,22.5,21.0,00.0,31.3,24.4,15.1,0000.0,0009.99,0002.30,0000.93
2022-11-06 17:23:00,,0823.7,4.99,0.00,22.5,21.0,00.0,31.3,24.4,14.8,0000.0,0010.09,0002.32,0000.95
2022-11-06 17:24:00,,0823.7,5.01,0.00,22.5,21.0,00.0,31.3,24.4,15.0,0000.0,0010.11,0002.30,0000.96
2022-11-06 17:25:00,,0823.8,5.01,0.00,22.5,20.9,00.0,31.3,24.4,15.4,0000.0,0010.82,0002.30,0000.97
2022-11-06 17:26:00,,0823.7,4.99,0.00,22.5,21.0,00.0,31.3,24.4,15.0,0000.0,0011.14,0002.37,0000.98
2022-11-06 17:27:00,,0823.8,5.02,0.00,22.5,21.0,00.0,31.3,24.4,15.0,0000.0,0011.90,0002.40,0001.00
2022-11-06 17:28:00,,0823.8,4.99,0.00,22.5,21.0,00.0,31.3,24.4,14.9,0000.0,0012.62,0002.47,0001.02
2022-11-06 17:29:00,,0823.8,5.00,0.00,22.5,21.0,00.0,31.3,24.4,15.1,0000.0,0012.82,0002.35,0001.04
2022-11-06 17:30:00,,0823.8,5.01,0.00,22.5,21.0,00.0,31.3,24.4,15.3,0000.0,0012.93,0002.33,0001.05
2022-11-06 17:31:00,,0823.8,4.99,0.00,22.5,21.0,00.0,31.3,24.4,15.1,0000.0,0013.21,0002.44,0001.06
2022-11-06 17:32:00,,0823.8,5.00,0.00,22.5,21.0,00.0,31.3,24.4,15.1,0000.0,0013.31,0002.50,0001.07
2022-11-06 17:33:00,,0823.9,5.01,0.00,22.5,21.0,00.0,31.3,24.4,15.3,0000.0,0013.11,0002.54,0001.08
2022-11-06 17:34:00,,0824.0,5.00,0.00,22.4,21.0,00.0,31.3,24.4,15.2,0000.0,0013.49,0002.51,0001.08
2022-11-06 17:35:00,,0823.9,5.00,0.00,22.5,21.0,00.0,31.3,24.4,15.0,0000.0,0014.67,0002.50,0001.10
2022-11-06 17:36:00,,0823.9,4.99,0.00,22.5,21.0,00.0,31.3,24.4,15.2,0000.0,0015.48,0002.57,0001.12
2022-11-06 17:37:00,,0823.8,5.01,0.00,22.5,21.0,00.0,31.2,24.4,15.4,0000.0,0015.58,0002.56,0001.13
2022-11-06 17:38:00,,0823.9,4.99,0.00,22.5,21.0,00.0,31.2,24.4,15.2,0000.0,0014.79,0002.55,0001.15
2022-11-06 17:39:00,,0823.9,5.00,0.00,22.4,20.9,00.0,31.2,24.3,15.1,0000.0,0013.78,0002.47,0001.14
2022-11-06 17:40:00,,0824.0,5.00,0.00,22.4,20.8,00.0,31.2,24.3,15.0,0000.0,0013.40,0002.53,0001.15
2022-11-06 17:41:00,,0824.0,4.99,0.00,22.4,20.8,00.0,31.2,24.3,15.1,0000.0,0013.72,0002.60,0001.17
2022-11-06 17:42:00,,0824.0,5.01,0.00,22.4,20.8,00.0,31.2,24.3,15.1,0000.0,0013.33,0002.57,0001.18
2022-11-06 17:43:00,,0824.0,5.00,0.00,22.4,20.8,00.0,31.2,24.3,15.2,0000.0,0012.99,0002.46,0001.19
2022-11-06 17:44:00,,0824.0,4.99,0.00,22.4,20.8,00.0,31.2,24.2,15.1,0000.0,0013.18,0002.44,0001.19
2022-11-06 17:45:00,,0824.1,5.00,0.00,22.4,20.8,00.0,31.2,24.2,15.2,0000.0,0012.54,0002.46,0001.20
2022-11-06 17:46:00,,0824.1,5.01,0.00,22.4,20.8,00.0,31.2,24.2,15.1,0000.0,0011.21,0002.45,0001.20
2022-11-06 17:47:00,,0824.1,4.99,0.00,22.3,20.9,00.0,31.2,24.2,15.5,0000.0,0010.16,0002.47,0001.21
2022-11-06 17:48:00,,0824.2,5.01,0.00,22.3,20.9,00.0,31.2,24.2,15.5,0000.0,0009.65,0002.52,0001.22
2022-11-06 17:49:00,,0824.2,5.00,0.00,22.3,20.9,00.0,31.2,24.2,15.2,0000.0,0011.16,0002.60,0001.23
2022-11-06 17:50:00,,0824.2,4.99,0.00,22.3,20.9,00.0,31.2,24.3,15.2,0000.0,0011.46,0002.64,0001.24
2022-11-06 17:51:00,,0824.2,5.01,0.00,22.3,20.9,00.0,31.2,24.2,15.0,0000.0,0011.94,0002.70,0001.24
2022-11-06 17:52:00,,0824.2,4.98,0.00,22.3,20.8,00.0,31.2,24.2,15.0,0000.0,0012.05,0002.73,0001.24
2022-11-06 17:53:00,,0824.4,5.01,0.00,22.3,20.8,00.0,31.2,24.2,15.0,0000.0,0011.85,0002.79,0001.24
2022-11-06 17:54:00,,0824.3,4.99,0.00,22.3,20.8,00.0,31.1,24.2,14.8,0000.0,0012.06,0002.78,0001.25
2022-11-06 17:55:00,,0824.2,5.01,0.00,22.3,20.8,00.0,31.1,24.2,14.8,0000.0,0011.79,0002.82,0001.24
2022-11-06 17:56:00,,0824.3,4.99,0.00,22.3,20.8,00.0,31.1,24.2,14.9,0000.0,0011.92,0002.82,0001.24
2022-11-06 17:57:00,,0824.3,5.00,0.00,22.3,20.8,00.0,31.1,24.2,15.1,0000.0,0012.21,0002.85,0001.24
2022-11-06 17:58:00,,0824.3,5.00,0.00,22.3,20.7,00.0,31.1,24.2,15.0,0000.0,0012.88,0002.82,0001.25
2022-11-06 17:59:00,,0824.3,4.99,0.00,22.3,20.7,00.0,31.1,24.1,14.9,0000.0,0012.56,0002.78,0001.25
